sat.trackr.live / text

‹ back to catalog

SNUSAT-2

NORAD 43782 · 2018-099AA

PAYLOAD ACTIVE UNKNOWN

§ Identity

Operator
Country
SKOR
Launch date
2018-12-03
Launch site
AFWTR
Launch vehicle
Mass (kg)
RCS (m²)

External: N2YO · Heavens-Above · Gunter

§ Orbital elements

Epoch: 2026-05-25T02:52:47.378784Z

Period
94.65 min
Inclination
97.4076°
Eccentricity
0.0010635
Mean motion
15.21427291 rev/d
Perigee alt
494.2 km
Apogee alt
508.9 km
Semi-major
6,879.7 km
B*
3.2606e-4
RAAN
198.8630°
Arg perigee
26.5214°
Mean anomaly
333.6564°
Rev number
40,952

§ Raw data

SNUSAT-21 43782U 18099AA  26145.11999281  .00007264  00000+0  32606-3 0  99972 43782  97.4076 198.8630 0010635  26.5214 333.6564 15.21427291409523

JSON: /api/v1/satellites/43782 · /tle

For live sub-satellite position, see the globe view (requires WebGL).

§ Visibility from observer

Set your observer location to see the next 7 days of passes ≥ 10°. The values pass through the URL so the page stays shareable.

No JS? Fill the form by hand. The geolocation button needs JavaScript.

§ Radio — SatNOGS DB

ModeDescriptionDownlinkUplink
BPSK BPSK2k4 TLM (inactive) 437.625 MHz
BPSK BPSK9k6 TLM (inactive) 437.625 MHz
DQPSK DQPSK 1.06Mbit/s (inactive) 2.402 GHz

3 transmitters · refreshed weekly from db.satnogs.org